Fremont, MI

8:11 AM EST on December 06, 2019 (GMT -0500)
Fremont

Weather History for KFFX - October, 2019

Change the Weather History Date:

Thursday, October 10, 2019

  Actual Average (KMKG) Record (KMKG)
Temperature  
Mean Temperature 60 °F -  
Max Temperature 72 °F 58 °F 84 °F (1913)
Min Temperature 49 °F 41 °F 27 °F (1956)
Degree Days  
Heating Degree Days 4    
Growing Degree Days 10 (Base 50)    
Moisture  
Dew Point 47 °F    
Average Humidity 66    
Maximum Humidity 92    
Minimum Humidity 35    
Precipitation  
Precipitation 0.00 in - - ()
Sea Level Pressure  
Sea Level Pressure 30.12 in    
Wind  
Wind Speed 6 mph ()    
Max Wind Speed 14 mph    
Max Gust Speed 21 mph    
Visibility 9.9 miles    
Events Rain    
Averages and records for this station are not official NWS values.
T = Trace of Precipitation, MM = Missing Value Source: Averaged Metar Reports

Daily Weather History Graph

Daily Weather History Graph

Search for Another Location

Airport or City:

Astronomy

Oct. 10, 2019 Rise Set
Actual Time 7:51 AM EDT 7:09 PM EDT
Civil Twilight 7:23 AM EDT 7:38 PM EDT
Nautical Twilight 6:49 AM EDT 8:11 PM EDT
Astronomical Twilight 6:16 AM EDT 8:44 PM EDT
Moon 6:18 PM EDT (10/10) 4:26 AM EDT (10/10)
Length of Visible Light 12h 15m
Length of Day
11h 17m
Waxing Gibbous, 91% of the Moon is Illuminated
Oct 10
Waxing Gibbous
Oct 13
Full
Oct 21
Last Quarter
Oct 27
New
Nov 4
First Quarter

Hourly Weather History & Observations

Time (EDT) Temp. Dew Point Humidity Pressure Visibility Wind Dir Wind Speed Gust Speed Precip Events Conditions
12:15 AM 54.0 °F 44.2 °F 70% 30.18 in 10.0 mi ESE 4.6 mph - N/A   Clear
12:16 AM 54.0 °F 44.2 °F 70% 30.18 in 10.0 mi ESE 3.5 mph - N/A   Clear
12:35 AM 53.6 °F 44.2 °F 71% 30.18 in 10.0 mi ESE 4.6 mph - N/A   Clear
12:59 AM 53.2 °F 44.8 °F 73% 30.18 in 10.0 mi ESE 4.6 mph - N/A   Clear
1:35 AM 53.4 °F 44.1 °F 71% 30.18 in 10.0 mi SE 4.6 mph - N/A   Clear
1:55 AM 52.7 °F 43.9 °F 72% 30.18 in 10.0 mi ESE 4.6 mph - N/A   Clear
1:56 AM 52.7 °F 43.9 °F 72% 30.18 in 10.0 mi ESE 3.5 mph - N/A   Clear
2:15 AM 51.8 °F 46.0 °F 81% 30.18 in 10.0 mi Calm Calm - N/A   Clear
2:20 AM 51.8 °F 46.4 °F 82% 30.18 in 10.0 mi ESE 3.5 mph - N/A   Clear
2:38 AM 51.8 °F 47.3 °F 85% 30.17 in 10.0 mi East 3.5 mph - N/A   Clear
2:56 AM 51.3 °F 47.7 °F 87% 30.17 in 10.0 mi East 3.5 mph - N/A   Clear
3:15 AM 51.4 °F 47.5 °F 86% 30.17 in 10.0 mi East 3.5 mph - N/A   Clear
3:16 AM 51.4 °F 47.5 °F 86% 30.17 in 10.0 mi East 4.6 mph - N/A   Clear
3:35 AM 51.4 °F 46.6 °F 83% 30.16 in 10.0 mi East 4.6 mph - N/A   Clear
3:36 AM 51.4 °F 46.8 °F 84% 30.16 in 10.0 mi East 4.6 mph - N/A   Clear
3:59 AM 51.3 °F 43.7 °F 75% 30.17 in 10.0 mi ESE 3.5 mph - N/A   Clear
4:17 AM 50.9 °F 44.6 °F 79% 30.16 in 10.0 mi East 4.6 mph - N/A   Clear
4:35 AM 50.9 °F 45.7 °F 82% 30.16 in 10.0 mi East 3.5 mph - N/A   Clear
4:55 AM 50.9 °F 43.9 °F 77% 30.16 in 10.0 mi ESE 4.6 mph - N/A   Clear
4:56 AM 50.9 °F 43.9 °F 77% 30.17 in 10.0 mi ESE 3.5 mph - N/A   Clear
5:15 AM 50.4 °F 45.5 °F 83% 30.16 in 10.0 mi East 5.8 mph - N/A   Clear
5:20 AM 50.4 °F 46.0 °F 85% 30.17 in 10.0 mi East 4.6 mph - N/A   Clear
5:38 AM 50.2 °F 46.0 °F 86% 30.17 in 10.0 mi East 5.8 mph - N/A   Clear
5:56 AM 50.4 °F 46.4 °F 86% 30.16 in 10.0 mi ESE 5.8 mph - N/A   Clear
6:15 AM 50.0 °F 46.8 °F 89% 30.16 in 10.0 mi East 5.8 mph - N/A   Clear
6:35 AM 50.2 °F 46.9 °F 89% 30.16 in 10.0 mi East 4.6 mph - N/A   Clear
6:36 AM 50.0 °F 46.9 °F 89% 30.16 in 10.0 mi East 4.6 mph - N/A   Clear
6:59 AM 49.6 °F 47.1 °F 91% 30.17 in 10.0 mi East 5.8 mph - N/A   Clear
7:17 AM 50.0 °F 47.3 °F 90% 30.17 in 10.0 mi East 5.8 mph - N/A   Clear
7:35 AM 49.5 °F 47.3 °F 92% 30.16 in 10.0 mi East 5.8 mph - N/A   Clear
7:55 AM 49.6 °F 47.5 °F 92% 30.16 in 10.0 mi East 5.8 mph - N/A   Clear
7:56 AM 49.6 °F 47.5 °F 92% 30.16 in 10.0 mi East 6.9 mph - N/A   Clear
8:15 AM 50.4 °F 48.2 °F 92% 30.15 in 10.0 mi East 6.9 mph - N/A   Clear
8:38 AM 51.1 °F 48.6 °F 91% 30.15 in 10.0 mi East 8.1 mph - N/A   Clear
8:56 AM 51.8 °F 49.1 °F 90% 30.15 in 10.0 mi East 9.2 mph - N/A   Clear
9:15 AM 52.3 °F 49.1 °F 89% 30.15 in 10.0 mi East 9.2 mph - N/A   Clear
9:16 AM 52.3 °F 49.1 °F 89% 30.15 in 10.0 mi East 9.2 mph - N/A   Clear
9:35 AM 52.7 °F 49.1 °F 88% 30.15 in 10.0 mi East 8.1 mph - N/A   Clear
9:36 AM 52.7 °F 49.1 °F 88% 30.15 in 10.0 mi East 8.1 mph - N/A   Clear
9:59 AM 53.6 °F 49.3 °F 85% 30.16 in 10.0 mi ESE 8.1 mph - N/A   Clear
10:17 AM 54.7 °F 49.1 °F 81% 30.16 in 10.0 mi ESE 9.2 mph - N/A   Clear
10:35 AM 55.6 °F 48.4 °F 77% 30.16 in 10.0 mi ESE 6.9 mph - N/A   Clear
10:55 AM 57.6 °F 47.7 °F 70% 30.16 in 10.0 mi ESE 5.8 mph - N/A   Clear
11:15 AM 59.0 °F 46.8 °F 64% 30.16 in 10.0 mi ESE 8.1 mph - N/A   Clear
11:38 AM 61.0 °F 47.3 °F 61% 30.17 in 10.0 mi SE 8.1 mph - N/A   Clear
11:56 AM 63.3 °F 47.7 °F 57% 30.17 in 10.0 mi SE 9.2 mph - N/A   Clear
12:15 PM 64.2 °F 48.2 °F 56% 30.15 in 10.0 mi ESE 9.2 mph - N/A   Scattered Clouds
12:16 PM 64.2 °F 48.2 °F 56% 30.15 in 10.0 mi ESE 9.2 mph - N/A   Scattered Clouds
12:35 PM 65.7 °F 48.4 °F 54% 30.15 in 10.0 mi ESE 9.2 mph - N/A   Clear
12:36 PM 65.7 °F 48.4 °F 54% 30.15 in 10.0 mi ESE 9.2 mph - N/A   Clear
12:59 PM 68.5 °F 48.9 °F 49% 30.14 in 10.0 mi SE 9.2 mph - N/A   Clear
1:17 PM 68.5 °F 48.9 °F 49% 30.14 in 10.0 mi ESE 8.1 mph - N/A   Clear
1:35 PM 69.8 °F 47.8 °F 46% 30.13 in 10.0 mi SE 8.1 mph 17.3 mph N/A   Clear
1:55 PM 70.7 °F 45.9 °F 41% 30.12 in 10.0 mi SE 9.2 mph 16.1 mph N/A   Scattered Clouds
2:15 PM 70.5 °F 46.9 °F 43% 30.11 in 10.0 mi SE 11.5 mph 18.4 mph N/A   Scattered Clouds
2:38 PM 71.6 °F 45.9 °F 40% 30.10 in 10.0 mi SSE 12.7 mph 17.3 mph N/A   Scattered Clouds
3:15 PM 72.5 °F 44.4 °F 36% 30.08 in 10.0 mi SE 8.1 mph 17.3 mph N/A   Scattered Clouds
3:35 PM 72.0 °F 44.4 °F 37% 30.07 in 10.0 mi ESE 13.8 mph 19.6 mph N/A   Scattered Clouds
3:59 PM 72.5 °F 43.0 °F 35% 30.07 in 10.0 mi SE 12.7 mph 20.7 mph N/A   Scattered Clouds
4:17 PM 72.5 °F 43.7 °F 36% 30.05 in 10.0 mi SE 8.1 mph - N/A   Scattered Clouds
4:35 PM 72.0 °F 43.0 °F 35% 30.05 in 5.0 mi SE 11.5 mph 18.4 mph N/A   Haze
4:36 PM 72.0 °F 43.0 °F 35% 30.05 in 5.0 mi SE 10.4 mph 18.4 mph N/A   Haze
4:55 PM 71.6 °F 44.4 °F 38% 30.05 in 10.0 mi ESE 11.5 mph 16.1 mph N/A   Clear
5:15 PM 70.5 °F 45.3 °F 40% 30.05 in 10.0 mi SE 9.2 mph 16.1 mph N/A   Clear
5:20 PM 70.5 °F 45.1 °F 40% 30.04 in 10.0 mi SE 8.1 mph 16.1 mph N/A   Clear
5:38 PM 70.7 °F 45.5 °F 40% 30.04 in 10.0 mi SE 6.9 mph - N/A   Clear
5:56 PM 68.9 °F 47.5 °F 46% 30.05 in 10.0 mi SE 4.6 mph - N/A   Clear
6:15 PM 68.5 °F 46.8 °F 46% 30.05 in 10.0 mi SE 4.6 mph - N/A   Clear
6:35 PM 67.8 °F 47.5 °F 48% 30.05 in 10.0 mi ESE 3.5 mph - N/A   Clear
6:59 PM 67.1 °F 48.2 °F 51% 30.05 in 10.0 mi ESE 4.6 mph - N/A   Clear
7:17 PM 66.2 °F 48.2 °F 52% 30.05 in 10.0 mi ESE 4.6 mph - N/A   Clear
7:35 PM 65.3 °F 48.4 °F 54% 30.04 in 10.0 mi East 4.6 mph - N/A   Clear
7:36 PM 65.3 °F 48.4 °F 54% 30.04 in 10.0 mi ESE 4.6 mph - N/A   Clear
7:55 PM 65.3 °F 48.2 °F 54% 30.05 in 10.0 mi ESE 4.6 mph - N/A   Clear
8:15 PM 65.3 °F 48.0 °F 54% 30.04 in 10.0 mi ESE 5.8 mph - N/A   Clear
8:38 PM 64.9 °F 48.2 °F 55% 30.04 in 10.0 mi ESE 6.9 mph - N/A   Scattered Clouds
8:56 PM 64.8 °F 48.2 °F 55% 30.04 in 10.0 mi ESE 5.8 mph - N/A   Mostly Cloudy
9:15 PM 64.4 °F 48.4 °F 56% 30.03 in 10.0 mi ESE 4.6 mph - N/A   Scattered Clouds
9:35 PM 64.4 °F 48.4 °F 56% 30.03 in 10.0 mi ESE 5.8 mph - N/A   Scattered Clouds
9:59 PM 63.9 °F 48.7 °F 58% 30.02 in 10.0 mi ESE 6.9 mph - N/A   Mostly Cloudy
10:17 PM 63.9 °F 48.7 °F 58% 30.02 in 10.0 mi ESE 8.1 mph - N/A Rain Light Rain
10:35 PM 64.2 °F 48.2 °F 56% 30.03 in 10.0 mi ESE 9.2 mph - N/A   Overcast
10:36 PM 64.2 °F 48.2 °F 56% 30.03 in 10.0 mi ESE 8.1 mph - N/A   Overcast
10:55 PM 64.2 °F 48.0 °F 56% 30.02 in 10.0 mi ESE 9.2 mph - N/A   Overcast
11:15 PM 64.0 °F 47.8 °F 56% 30.02 in 10.0 mi ESE 11.5 mph - N/A   Overcast
11:20 PM 64.2 °F 47.7 °F 55% 30.02 in 10.0 mi ESE 10.4 mph 17.3 mph N/A   Overcast
11:38 PM 63.9 °F 47.7 °F 56% 30.02 in 10.0 mi ESE 10.4 mph 16.1 mph N/A   Mostly Cloudy
11:56 PM 63.5 °F 47.5 °F 56% 30.02 in 10.0 mi ESE 9.2 mph - N/A   Mostly Cloudy